Flag for Germany Weather past 2 weeks in Oranienburg, Brandenburg, Germany

Now
69 °F

Passing clouds.


Feels Like: 69 °F
Forecast: 64 / 73 °F
Wind: 2 mph from North

Location: Berlin-Tegel

Current Time: Jul 30, 2014 at 1:28:08 AM

Latest Report: Jul 30, 2014 at 1:00 AM


Visibility: 9 mi

Pressure: 29.71 "Hg

Humidity: 93%

Dew point: 67 °F

Location of OranienburgLocation

Historic Weather in Oranienburg — Graph

°F

Oranienburg temperature yesterday

Maximum temperature yesterday: 85 °F (at 3:00 PM)
Minimum temperature yesterday: 69 °F (at 6:00 AM)
Average temperature yesterday: 74 °F

Past Weeks' High & Low Weather Summary

 TemperatureHumidityPressure
High93 °F (Jul 20, 3:00 PM)96% (Jul 26, 7:00 AM)30.19 "Hg (Jul 26, 7:00 AM)
Low62 °F (Jul 25, 1:00 AM)21% (Jul 19, 4:00 PM)29.69 "Hg (Jul 29, 4:00 PM)
Average74 °F61%29.98 "Hg
* Reported Midnight between Jul 14 and Jul 15 — Midnight between Jul 29 and Jul 30, Oranienburg, Weather by CustomWeather, © 2014

Note: Actual official high and low records may vary slightly from our data, if they occured in-between our weather recording intervals... More about our weather records

Advertising

Oranienburg weather history for previous 24 hours

 ConditionsComfort  
Time TempWeatherWind HumidityBarometerVisibility
12:00 AM
Jul 30
69 °FPassing clouds.1 mph92%29.72 "Hg12 mi
11:00 PM
Jul 29
70 °FPassing clouds.1 mph89%29.71 "Hg16 mi
10:00 PM71 °FOvercast.2 mph87%29.71 "Hg16 mi
9:00 PM71 °FOvercast.1 mph87%29.72 "Hg12 mi
8:00 PM71 °FOvercast.1 mph87%29.72 "Hg11 mi
7:00 PM71 °FThunderstorms. Overcast.2 mph88%29.72 "Hg11 mi
6:00 PM70 °FThundershowers. Overcast.2 mph88%29.73 "Hg11 mi
5:00 PM71 °FThunderstorms. Overcast.3 mph85%29.73 "Hg11 mi
4:00 PM83 °FThunderstorms. Scattered clouds.3 mph56%29.69 "Hg12 mi
3:00 PM85 °FThundershowers. Partly sunny.1 mph47%29.71 "Hg11 mi
2:00 PM84 °FScattered clouds.2 mph48%29.75 "Hg12 mi
1:00 PM82 °FPassing clouds.2 mph53%29.76 "Hg12 mi
12:00 PM80 °FPassing clouds.3 mph60%29.77 "Hg12 mi
11:00 AM77 °FScattered clouds.2 mph67%29.78 "Hg11 mi
10:00 AM75 °FOvercast.3 mph70%29.79 "Hg9 mi
9:00 AM71 °FOvercast.3 mph82%29.80 "Hg7 mi
8:00 AM69 °FSprinkles. Overcast.1 mph84%29.80 "Hg8 mi
7:00 AM69 °FOvercast.2 mph83%29.80 "Hg6 mi
6:00 AM69 °FOvercast.2 mph82%29.81 "Hg5 mi
5:00 AM70 °FOvercast.2 mph80%29.81 "Hg12 mi
4:00 AM70 °FPassing clouds.1 mph77%29.82 "Hg14 mi
3:00 AM71 °FPassing clouds.2 mph76%29.81 "Hg14 mi
2:00 AM71 °FPassing clouds.2 mph73%29.82 "Hg14 mi
1:00 AM73 °FPassing clouds.2 mph70%29.83 "Hg14 mi
Weather by CustomWeather, © 2014

See weather overviewHow to use our weather pages